Change the Weather History Date:

Tuesday, June 18, 2013

  Actual Average Record
Temperature  
Mean Temperature 62 °F 64 °F  
Max Temperature 71 °F 75 °F 90 °F (1957)
Min Temperature 53 °F 54 °F 35 °F (1958)
Degree Days  
Heating Degree Days 3 3  
Month to date heating degree days 95 81  
Since 1 June heating degree days 95 81  
Since 1 July heating degree days 7024 7441  
Cooling Degree Days 0 2  
Month to date cooling degree days 21 29  
Year to date cooling degree days 46 42  
Since 1 June cooling degree days 21 29  
Growing Degree Days 12 (Base 50)    
Moisture  
Dew Point 57 °F    
Average Humidity 87    
Maximum Humidity 100    
Minimum Humidity 73    
Precipitation  
Precipitation 0.22 in 0.13 in 0.99 in (1967)
Month to date precipitation 6.44 3.01  
Year to date precipitation 21.03 20.05  
Sea Level Pressure  
Sea Level Pressure 29.91 in    
Wind  
Wind Speed 2 mph (NNE)    
Max Wind Speed 9 mph    
Max Gust Speed 14 mph    
Visibility 5 miles    
Events Fog , Rain , Thunderstorm    
T = Trace of Precipitation, MM = Missing Value Source: NWS Daily Summary

Daily Weather History Graph

Daily Weather History Graph

Search for Another Location

Airport or City:

Trip Planner

Search our weather history database for the weather conditions in past years. The results will help you decide how hot, cold, wet, or windy it might be!

Date:

Astronomy

Jun. 18, 2013 Rise Set
Actual Time 5:15 AM EDT 8:33 PM EDT
Civil Twilight 4:40 AM EDT 9:07 PM EDT
Nautical Twilight 3:55 AM EDT 9:53 PM EDT
Astronomical Twilight 3:00 AM EDT 10:48 PM EDT
Moon 3:09 PM EDT (6/18) 1:27 AM EDT (6/18)
Length of Visible Light 16h 27m
Length of Day
15h 17m
Waxing Gibbous, 70% of the Moon is Illuminated
Jun 18
Waxing Gibbous
Jun 23
Full
Jun 30
Last Quarter
Jul 8
New
Jul 15
First Quarter

Hourly Weather History & Observations

Time (EDT) Temp. Dew Point Humidity Pressure Visibility Wind Dir Wind Speed Gust Speed Precip Events Conditions
12:00 AM 57.2 °F 55.4 °F 94% 29.93 in 0.8 mi Calm Calm - N/A   Partly Cloudy
12:11 AM 55.4 °F 55.4 °F 100% 29.93 in 0.8 mi Calm Calm - N/A   Mist
12:35 AM 57.2 °F 55.4 °F 94% 29.93 in 0.2 mi Calm Calm - N/A Fog Fog
12:54 AM 55.9 °F 55.9 °F 100% 29.87 in 0.2 mi Calm Calm - N/A Fog Fog
1:54 AM 54.0 °F 54.0 °F 100% 29.86 in 0.2 mi Calm Calm - N/A Fog Fog
2:20 AM 53.6 °F 51.8 °F 94% 29.93 in 1.0 mi Calm Calm - N/A   Mist
2:24 AM 53.6 °F 51.8 °F 94% 29.93 in 4.0 mi Calm Calm - N/A   Mostly Cloudy
2:27 AM 53.6 °F 53.6 °F 100% 29.93 in 1.5 mi Calm Calm - N/A   Overcast
2:30 AM 53.6 °F 53.6 °F 100% 29.93 in 0.2 mi Calm Calm - N/A Fog Fog
2:45 AM 53.6 °F 53.6 °F 100% 29.93 in 1.2 mi Calm Calm - N/A   Overcast
2:54 AM 53.1 °F 53.1 °F 100% 29.86 in 0.5 mi Calm Calm - N/A Fog Fog
3:03 AM 53.6 °F 53.6 °F 100% 29.92 in 0.2 mi Calm Calm - N/A Fog Fog
3:24 AM 53.6 °F 53.6 °F 100% 29.92 in 0.2 mi Calm Calm - N/A Fog Fog
3:35 AM 53.6 °F 53.6 °F 100% 29.91 in 0.2 mi Calm Calm - N/A Fog Fog
3:54 AM 54.0 °F 54.0 °F 100% 29.86 in 0.2 mi Calm Calm - N/A Fog Fog
4:17 AM 55.4 °F 55.4 °F 100% 29.91 in 0.2 mi Calm Calm - N/A Fog Fog
4:39 AM 55.4 °F 53.6 °F 94% 29.91 in 0.2 mi Calm Calm - N/A Fog Fog
4:54 AM 55.0 °F 54.0 °F 96% 29.87 in 0.2 mi Calm Calm - N/A Fog Fog
5:21 AM 53.6 °F 53.6 °F 100% 29.92 in 0.2 mi Calm Calm - N/A Fog Fog
5:36 AM 53.6 °F 53.6 °F 100% 29.91 in 0.2 mi Calm Calm - N/A Fog Fog
5:54 AM 55.0 °F 54.0 °F 96% 29.87 in 0.2 mi Calm Calm - N/A Fog Fog
6:54 AM 55.0 °F 55.0 °F 100% 29.88 in 0.2 mi Calm Calm - 0.01 in Fog Fog
7:54 AM 57.0 °F 55.9 °F 96% 29.88 in 0.2 mi Calm Calm - N/A Fog Fog
8:25 AM 57.2 °F 57.2 °F 100% 29.93 in 0.2 mi Calm Calm - N/A Fog Fog
8:37 AM 59.0 °F 57.2 °F 94% 29.94 in 1.5 mi Calm Calm - N/A   Overcast
8:40 AM 59.0 °F 57.2 °F 94% 29.94 in 3.0 mi Calm Calm - N/A   Overcast
8:54 AM 60.1 °F 59.0 °F 96% 29.90 in 5.0 mi Calm Calm - N/A   Mostly Cloudy
9:03 AM 60.8 °F 59.0 °F 94% 29.95 in 6.0 mi Calm Calm - N/A   Mostly Cloudy
9:54 AM 66.9 °F 61.0 °F 81% 29.88 in 10.0 mi Calm Calm - N/A   Scattered Clouds
10:54 AM 70.0 °F 61.0 °F 73% 29.87 in 10.0 mi Calm Calm - N/A   Partly Cloudy
11:54 AM 66.9 °F 60.1 °F 79% 29.88 in 10.0 mi NNW 5.8 mph - N/A   Overcast
12:04 PM 66.2 °F 59.0 °F 78% 29.92 in 10.0 mi North 8.1 mph - 0.00 in Rain Light Rain
12:25 PM 62.6 °F 60.8 °F 94% 29.94 in 2.5 mi Variable 4.6 mph - 0.02 in Rain , Thunderstorm Light Rain
12:28 PM 62.6 °F 60.8 °F 94% 29.94 in 1.0 mi Variable 5.8 mph - 0.05 in Rain , Thunderstorm Rain
12:32 PM 62.6 °F 60.8 °F 94% 29.94 in 0.5 mi West 6.9 mph - 0.12 in Fog , Rain , Thunderstorm Heavy Rain
12:42 PM 62.6 °F 60.8 °F 94% 29.93 in 0.8 mi West 4.6 mph - 0.18 in Rain Rain
12:49 PM 62.6 °F 60.8 °F 94% 29.93 in 1.2 mi NW 4.6 mph - 0.20 in Rain Light Rain
12:54 PM 63.0 °F 61.0 °F 93% 29.88 in 2.5 mi NW 3.5 mph - 0.20 in Rain Light Rain
1:01 PM 62.6 °F 60.8 °F 94% 29.93 in 6.0 mi NNW 3.5 mph - 0.00 in Rain Light Rain
1:45 PM 62.6 °F 60.8 °F 94% 29.91 in 9.0 mi Calm Calm - 0.00 in   Overcast
1:54 PM 64.9 °F 62.1 °F 90% 29.86 in 8.0 mi Calm Calm - 0.00 in   Overcast
2:09 PM 64.4 °F 60.8 °F 88% 29.91 in 10.0 mi NNE 5.8 mph - N/A   Overcast
2:25 PM 64.4 °F 62.6 °F 94% 29.90 in 10.0 mi NE 3.5 mph - N/A   Overcast
2:39 PM 64.4 °F 60.8 °F 88% 29.91 in 10.0 mi NE 8.1 mph - N/A   Overcast
2:54 PM 64.0 °F 60.1 °F 87% 29.86 in 10.0 mi NE 6.9 mph - N/A   Overcast
3:54 PM 64.0 °F 60.1 °F 87% 29.86 in 10.0 mi North 5.8 mph - N/A   Overcast
4:49 PM 62.6 °F 60.8 °F 94% 29.91 in 10.0 mi ENE 5.8 mph - 0.01 in   Mostly Cloudy
4:54 PM 63.0 °F 60.1 °F 90% 29.87 in 10.0 mi ENE 4.6 mph - 0.01 in   Mostly Cloudy
5:08 PM 62.6 °F 60.8 °F 94% 29.92 in 10.0 mi ENE 3.5 mph - N/A   Mostly Cloudy
5:27 PM 62.6 °F 59.0 °F 88% 29.92 in 10.0 mi East 3.5 mph - N/A   Mostly Cloudy
5:51 PM 62.6 °F 59.0 °F 88% 29.92 in 10.0 mi East 3.5 mph - N/A   Mostly Cloudy
5:54 PM 63.0 °F 57.9 °F 84% 29.87 in 10.0 mi Calm Calm - N/A   Overcast
6:54 PM 62.1 °F 55.9 °F 80% 29.88 in 10.0 mi ENE 3.5 mph - N/A   Overcast
7:35 PM 60.8 °F 55.4 °F 82% 29.93 in 10.0 mi East 4.6 mph - N/A   Overcast
7:54 PM 60.1 °F 54.0 °F 80% 29.88 in 10.0 mi ENE 4.6 mph - N/A   Overcast
8:54 PM 59.0 °F 51.1 °F 75% 29.88 in 10.0 mi East 5.8 mph - N/A   Overcast
9:38 PM 57.2 °F 51.8 °F 82% 29.94 in 10.0 mi Calm Calm - N/A   Overcast
9:54 PM 57.0 °F 51.1 °F 81% 29.89 in 10.0 mi Calm Calm - N/A   Overcast
10:16 PM 57.2 °F 51.8 °F 82% 29.94 in 10.0 mi Calm Calm - N/A   Overcast
10:49 PM 57.2 °F 53.6 °F 88% 29.94 in 10.0 mi Calm Calm - N/A   Overcast
10:54 PM 57.0 °F 53.1 °F 87% 29.89 in 10.0 mi Calm Calm - N/A   Overcast
11:54 PM 57.0 °F 53.1 °F 87% 29.90 in 10.0 mi Calm Calm - N/A   Overcast